| time (UTC) | temp F | wind direction | speed MPH | gust MPH | rain 1hr in | rain 24hr in | rain mn in | humidity % | barometer mb |
| 20260507014549 | 0 | 59 | 0.0 | 7.0 | 0.00 | 0.00 | 0.00 | 1016.9 | |
| 20260507013047 | 0 | 78 | 4.0 | 7.0 | 0.00 | 0.00 | 0.00 | 1016.9 | |
| 20260507011534 | 0 | 68 | 4.0 | 8.0 | 0.00 | 0.00 | 0.00 | 1016.9 | |
| 20260507010034 | 0 | 190 | 3.0 | 7.0 | 0.00 | 0.00 | 0.00 | 1016.8 | |
| 20260507004524 | 0 | 203 | 4.0 | 7.0 | 0.00 | 0.00 | 0.00 | 1016.7 | |
| 20260507003018 | 0 | 222 | 3.0 | 7.0 | 0.00 | 0.00 | 0.00 | 1016.7 | |
| 20260507001515 | 0 | 250 | 3.0 | 8.0 | 0.00 | 0.00 | 0.00 | 1016.7 | |
| 20260507000016 | 0 | 220 | 4.0 | 8.0 | 0.00 | 0.00 | 0.00 | 1016.7 | |
| 20260506234515 | 0 | 186 | 5.0 | 9.0 | 0.00 | 0.00 | 0.00 | 1016.8 | |
| 20260506233004 | 0 | 218 | 5.0 | 9.0 | 0.00 | 0.00 | 0.00 | 1016.9 | |
| 20260506231618 | 0 | 275 | 5.0 | 10.0 | 0.00 | 0.00 | 0.00 | 1016.9 | |
| 20260506224550 | 0 | 246 | 6.0 | 11.0 | 0.00 | 0.00 | 0.00 | 1017.3 | |
| 20260506223049 | 0 | 261 | 5.0 | 12.0 | 0.00 | 0.00 | 0.00 | 1017.4 | |
| 20260506221550 | 0 | 285 | 0.0 | 0.0 | 0.00 | 0.00 | 0.00 | 1017.7 | |
| 20260506220036 | 0 | 217 | 0.0 | 0.0 | 0.00 | 0.00 | 0.00 | 1017.8 | |
| 20260506214531 | 0 | 221 | 0.0 | 0.0 | 0.00 | 0.00 | 0.00 | 1018.1 | |
| 20260506213028 | 0 | 242 | 0.0 | 0.0 | 0.00 | 0.00 | 0.00 | 1018.2 | |
| 20260506211527 | 0 | 202 | 0.0 | 0.0 | 0.00 | 0.00 | 0.00 | 1018.4 | |
| 20260506210026 | 0 | 239 | 0.0 | 0.0 | 0.00 | 0.00 | 0.00 | 1018.4 | |
| 20260506204513 | 0 | 237 | 0.0 | 0.0 | 0.00 | 0.00 | 0.00 | 1018.5 | |
| 20260506203009 | 0 | 237 | 0.0 | 0.0 | 0.00 | 0.00 | 0.00 | 1018.7 | |
| 20260506201504 | 0 | 182 | 0.0 | 0.0 | 0.00 | 0.00 | 0.00 | 1018.9 | |
| 20260506200100 | 0 | 226 | 0.0 | 0.0 | 0.00 | 0.00 | 0.00 | 1019.0 | |
| 20260506194556 | 0 | 246 | 0.0 | 0.0 | 0.00 | 0.00 | 0.00 | 1019.1 | |
| 20260506193052 | 0 | 225 | 0.0 | 0.0 | 0.00 | 0.00 | 0.00 | 1019.2 | |
| 20260506191547 | 0 | 230 | 0.0 | 0.0 | 0.00 | 0.00 | 0.00 | 1019.4 | |
| 20260506190042 | 0 | 191 | 0.0 | 0.0 | 0.00 | 0.00 | 0.00 | 1019.5 | |
| 20260506184538 | 0 | 246 | 0.0 | 0.0 | 0.00 | 0.00 | 0.00 | 1019.5 | |
| 20260506183036 | 0 | 242 | 0.0 | 0.0 | 0.00 | 0.00 | 0.00 | 1019.6 | |
| 20260506181530 | 0 | 261 | 0.0 | 10.0 | 0.00 | 0.00 | 0.00 | 1019.7 | |
| 20260506180023 | 0 | 271 | 4.0 | 9.0 | 0.00 | 0.00 | 0.00 | 1019.7 | |
| 20260506174519 | 0 | 244 | 4.0 | 10.0 | 0.00 | 0.00 | 0.00 | 1019.7 | |
| 20260506173022 | 0 | 246 | 4.0 | 9.0 | 0.00 | 0.00 | 0.00 | 1019.7 | |
| 20260506171512 | 0 | 210 | 3.0 | 8.0 | 0.00 | 0.00 | 0.00 | 1019.7 | |
| 20260506170006 | 0 | 190 | 3.0 | 7.0 | 0.00 | 0.00 | 0.00 | 1019.7 | |
| 20260506164503 | 0 | 186 | 4.0 | 7.0 | 0.00 | 0.00 | 0.00 | 1019.7 | |
| 20260506163106 | 0 | 189 | 3.0 | 7.0 | 0.00 | 0.00 | 0.00 | 1019.8 | |
| 20260506161554 | 0 | 186 | 3.0 | 7.0 | 0.00 | 0.00 | 0.00 | 1019.8 | |
| 20260506160104 | 0 | 151 | 3.0 | 6.0 | 0.00 | 0.00 | 0.00 | 1019.9 | |
| 20260506154551 | 0 | 140 | 2.0 | 5.0 | 0.00 | 0.00 | 0.00 | 1019.9 | |
| 20260506153040 | 0 | 142 | 2.0 | 4.0 | 0.00 | 0.00 | 0.00 | 1019.9 | |
| 20260506151536 | 0 | 144 | 2.0 | 4.0 | 0.00 | 0.00 | 0.00 | 1019.9 | |
| 20260506150031 | 0 | 144 | 0.0 | 0.0 | 0.00 | 0.00 | 0.00 | 1020.0 | |
| 20260506144531 | 0 | 355 | 0.0 | 0.0 | 0.00 | 0.00 | 0.00 | 1020.0 | |
| 20260506143031 | 0 | 355 | 0.0 | 0.0 | 0.00 | 0.00 | 0.00 | 1020.0 | |
| 20260506141517 | 0 | 355 | 0.0 | 0.0 | 0.00 | 0.00 | 0.00 | 1019.9 | |
| 20260506140013 | 0 | 0.0 | 0.0 | 0.00 | 0.00 | 0.00 | 1019.7 | ||
| 20260506134508 | 0 | 0.0 | 0.0 | 0.00 | 0.00 | 0.00 | 1019.6 | ||
| 20260506133006 | 0 | 0.0 | 0.0 | 0.00 | 0.00 | 0.00 | 1019.4 | ||
| 20260506131600 | 0 | 355 | 0.0 | 0.0 | 0.00 | 0.00 | 0.00 | 1019.2 | |
| 20260506130055 | 0 | 355 | 0.0 | 0.0 | 0.00 | 0.00 | 0.00 | 1019.1 | |
| 20260506124550 | 0 | 355 | 0.0 | 3.0 | 0.00 | 0.00 | 0.00 | 1019.0 | |
| 20260506123047 | 0 | 5 | 1.0 | 5.0 | 0.00 | 0.00 | 0.00 | 1019.0 | |
| 20260506121548 | 0 | 351 | 0.0 | 1.0 | 0.00 | 0.00 | 0.00 | 1018.9 | |
| 20260506120137 | 0 | 351 | 0.0 | 2.0 | 0.00 | 0.00 | 0.00 | 1018.8 | |
| 20260506114532 | 0 | 348 | 0.0 | 0.0 | 0.00 | 0.00 | 0.00 | 1018.7 | |
| 20260506113028 | 0 | 348 | 0.0 | 0.0 | 0.00 | 0.00 | 0.00 | 1018.7 | |
| 20260506111523 | 0 | 355 | 0.0 | 0.0 | 0.00 | 0.00 | 0.00 | 1018.7 | |
| 20260506110024 | 0 | 355 | 0.0 | 0.0 | 0.00 | 0.00 | 0.00 | 1018.6 | |
| 20260506104515 | 0 | 5 | 0.0 | 3.0 | 0.00 | 0.00 | 0.00 | 1018.5 | |
| 20260506103023 | 0 | 5 | 0.0 | 3.0 | 0.00 | 0.00 | 0.00 | 1018.5 | |
| 20260506101506 | 0 | 360 | 0.0 | 2.0 | 0.00 | 0.00 | 0.00 | 1018.5 | |
| 20260506100001 | 0 | 360 | 0.0 | 2.0 | 0.00 | 0.00 | 0.00 | 1018.6 | |
| 20260506094557 | 0 | 360 | 0.0 | 2.0 | 0.00 | 0.00 | 0.00 | 1018.6 | |
| 20260506093054 | 0 | 360 | 0.0 | 3.0 | 0.00 | 0.00 | 0.00 | 1018.7 | |
| 20260506091549 | 0 | 360 | 0.0 | 3.0 | 0.00 | 0.00 | 0.00 | 1018.7 | |
| 20260506090044 | 0 | 360 | 0.0 | 0.0 | 0.00 | 0.00 | 0.00 | 1018.6 | |
| 20260506084539 | 0 | 360 | 0.0 | 0.0 | 0.00 | 0.00 | 0.00 | 1018.5 | |
| 20260506083040 | 0 | 360 | 0.0 | 0.0 | 0.00 | 0.00 | 0.00 | 1018.5 | |
| 20260506081530 | 0 | 360 | 0.0 | 0.0 | 0.00 | 0.00 | 0.00 | 1018.5 | |
| 20260506073016 | 0 | 360 | 0.0 | 1.0 | 0.00 | 0.00 | 0.00 | 1018.2 | |
| 20260506071512 | 0 | 360 | 0.0 | 2.0 | 0.00 | 0.00 | 0.00 | 1018.2 | |
| 20260506061554 | 0 | 360 | 0.0 | 0.0 | 0.00 | 0.00 | 0.00 | 1017.8 | |
| 20260506044536 | 0 | 360 | 1.0 | 2.0 | 0.00 | 0.00 | 0.00 | 1017.3 | |
| 20260506043024 | 0 | 360 | 0.0 | 1.0 | 0.00 | 0.00 | 0.00 | 1017.2 | |
| 20260506041521 | 0 | 360 | 0.0 | 1.0 | 0.00 | 0.00 | 0.00 | 1017.1 | |
| 20260506040016 | 0 | 360 | 0.0 | 2.0 | 0.00 | 0.00 | 0.00 | 1016.8 | |
| 20260506034510 | 0 | 324 | 0.0 | 4.0 | 0.00 | 0.00 | 0.00 | 1016.7 | |
| 20260506033006 | 0 | 5 | 1.0 | 5.0 | 0.00 | 0.00 | 0.00 | 1016.6 | |
| 20260506031512 | 0 | 355 | 0.0 | 4.0 | 0.00 | 0.00 | 0.00 | 1016.3 | |
| 20260506030005 | 0 | 5 | 0.0 | 2.0 | 0.00 | 0.00 | 0.00 | 1016.0 | |
| 20260506024503 | 0 | 36 | 1.0 | 3.0 | 0.00 | 0.00 | 0.00 | 1016.0 | |
| 20260506023002 | 0 | 89 | 2.0 | 6.0 | 0.00 | 0.00 | 0.00 | 1015.9 | |
| 20260506021502 | 0 | 74 | 2.0 | 6.0 | 0.00 | 0.00 | 0.00 | 1015.9 | |
| 20260506020001 | 0 | 73 | 2.0 | 6.0 | 0.00 | 0.00 | 0.00 | 1015.9 |